Regional Weather Roundup
Issued by NWS

Home | Current Version | Previous Version | Text Only | Print | Product List | Glossary Off
Versions: 1 2 3 4 5 6 7 8 9 10 11 12 13 14 15 16 17 18 19 20 21 22 23 24 25 26 27 28 29 30 31 32 33 34 35 36 37 38 39 40 41 42 43 44 45 46 47 48 49

000
ASUS45 KCYS 202010
RWRWY

WYOMING REGIONAL WEATHER ROUNDUP
NATIONAL WEATHER SERVICE CHEYENNE WY
100 PM MST SAT DEC 20 2014

NOTE:  "FAIR" INDICATES FEW OR NO CLOUDS BELOW 12,000 FEET
WITH NO SIGNIFICANT WEATHER AND/OR OBSTRUCTIONS TO VISIBILITY.

WYZ001-202100-
YELLOWSTONE NATIONAL PARK

CITY           SKY/WX    TMP DP  RH WIND       PRES   REMARKS
LK YELLOWSTONE   N/A     28  21  75 VRB5      29.93F WCI  23
W YELLOWSTONE  NOT AVBL

$$
WYZ002>013-054>058-071-098>099-202100-
NORTHERN WYOMING

CITY           SKY/WX    TMP DP  RH WIND       PRES   REMARKS
JACKSON        CLOUDY    32  28  86 S12       29.96F WCI  23
CODY           FAIR      39  21  48 SE8       29.87F WCI  34
GREYBULL       FAIR      23  16  74 CALM      29.94F
WORLAND        FAIR      22  16  78 SE3       29.92F
SHERIDAN       FAIR      40  26  57 N5        29.87F
BUFFALO        FAIR      40  23  50 SE9       29.88F WCI  34
GILLETTE       FAIR      44  23  43 SE5       29.89F
HULETT           N/A    N/A N/A N/A MISG        N/A
NEWCASTLE      FAIR      41  27  56 W3        29.92F

$$
WYZ014>020-022>026-101>103-202100-
CENTRAL WYOMING

CITY           SKY/WX    TMP DP  RH WIND       PRES   REMARKS
BIG PINEY      CLOUDY    32  23  69 E5        29.98F WCI  27
PINEDALE       MOCLDY    30  25  80 CALM      29.99F
DUBOIS         NOT AVBL
LANDER         FAIR      25  18  74 NW10      29.92F HAZE    WCI  15
RIVERTON       FAIR      20  16  84 E3        29.94F
CASPER         FAIR      36  26  67 SW18      29.92F WCI  26
DOUGLAS        FAIR      46  25  43 W13       29.92F

$$
WYZ021-027>030-104>119-202100-
SOUTHERN WYOMING

CITY           SKY/WX    TMP DP  RH WIND       PRES   REMARKS
EVANSTON       LGT SNOW  31  30  96 SW13      30.02F VSB 1   WCI  21
KEMMERER       LGT SNOW  32  30  93 W12       30.00F VSB 1   WCI  23
FORT BRIDGER   CLOUDY    35  30  83 W14       30.04F WCI  25
ROCK SPRINGS   CLOUDY    33  26  75 SW13      30.01F WCI  24
DIXON          CLOUDY    33  25  72 SW15      30.08F WCI  23
RAWLINS        PTSUNNY   33  24  69 SW14      30.00F WCI  23
SARATOGA       CLOUDY    34  25  69 CALM      30.02F
LARAMIE        CLOUDY    35  23  61 SW17      29.96F WCI  25
CHEYENNE       FAIR      45  18  34 W18G28    29.95F
TORRINGTON     FAIR     N/A N/A N/A W14       29.92F
PINE BLUFFS    CLOUDY    43  23  45 NW12      29.95F

$$


USA.gov is the U.S. government's official web portal to all federal, state and local government web resources and services.